Location: Westminster
(33.3626°N, 96.4619°W)
Time: 21:13:38
(UTC+00:00)

Cosmos 2142 Rocket - Pass Details

Date: 03 December 2021
Orbit: 953 x 1004 km, 83.0° (Epoch: 26 January)

Event Time Altitude Azimuth Distance (km) Brightness Sun altitude
Rises 11:58:16 0° 352° (N) 3,713 7.3 -15.5°
Reaches altitude 10° 12:00:47 10° 352° (N) 2,766 6.6 -15.0°
Maximum altitude 12:07:09 80° 266° (W) 1,018 4.5 -13.7°
Drops below altitude 10° 12:13:31 10° 180° (S) 2,767 7.1 -12.4°
Sets 12:16:02 0° 179° (S) 3,713 7.8 -11.9°
